Regional Weather Roundup
Issued by NWS

Home | Current Version | Previous Version | Graphics & Text | Print | Product List | Glossary On
Versions: 1 2 3 4 5 6 7 8 9 10 11 12 13 14 15 16 17 18 19 20 21 22 23 24 25 26 27 28
000
ASUS45 KBOI 290710
RWRID

IDAHO REGIONAL WEATHER ROUNDUP
NATIONAL WEATHER SERVICE BOISE ID
100 AM MDT THU SEP 29 2016

NOTE: "FAIR" INDICATES FEW OR NO CLOUDS BELOW 12000 FEET
WITH NO SIGNIFICANT WEATHER AND/OR OBSTRUCTIONS TO VISIBILITY

IDZ012-014-290800-
SOUTHWEST IDAHO


CITY           SKY/WX    TMP DP  RH WIND       PRES   REMARKS
BOISE          PTCLDY    74  33  22 SE9       29.93S
CALDWELL       PTCLDY    68  39  34 E9        29.90F
MOUNTAIN HOME  PTCLDY    66  44  44 E17G23    29.95S
$$

IDZ016-017-290800-
SOUTHCENTRAL IDAHO


CITY           SKY/WX    TMP DP  RH WIND       PRES   REMARKS
BURLEY         PTCLDY    67  48  50 S13       30.09F
JEROME         CLEAR     66  41  40 E10       30.07F
TWIN FALLS     CLEAR     70  44  39 S26G38    30.04F
$$

IDZ019>023-290800-
SOUTHEAST IDAHO


CITY           SKY/WX    TMP DP  RH WIND       PRES   REMARKS
IDAHO FALLS    PTCLDY    56  45  66 SW6       30.21R
POCATELLO      PTCLDY    66  45  46 S10       30.16S
REXBURG        CLOUDY    52  46  80 SW5       30.22R
$$

IDZ006-010-011-018-031-032-290800-
CENTRAL IDAHO MOUNTAINS


CITY           SKY/WX    TMP DP  RH WIND       PRES   REMARKS
MCCALL         CLEAR     50  38  63 NE3       30.09S
HAILEY         CLEAR     52  36  54 NW7       30.24R
STANLEY          N/A     45  31  58 SE7       30.25S
SALMON         CLEAR     46  39  76 CALM      30.11R
CHALLIS        CLEAR     50  33  52 CALM      30.17S
$$

IDZ002-004-006-007-026-290800-
NORTHERN IDAHO


CITY           SKY/WX    TMP DP  RH WIND       PRES   REMARKS
LEWISTON       CLEAR     65  42  43 S5        29.92S
LOWELL           N/A     56  53  90 CALM      29.97S
COEUR D`ALENE  PTCLDY    60  45  57 NE12      29.97S
MULLAN PASS    CLEAR     60  40  47 SE6       30.14S
$$




USA.gov is the U.S. government's official web portal to all federal, state and local government web resources and services.